CCA1535 ZUGY-ZBTJ

Flight info

Callsign CCA1535
Flight time N/A
Altitude 39100
Route AVBOB W586 TRN W183 HUY A581 BODUV W102 EMVIL W284 UPSIK W4 VADMO W56 GUVRI W85 OMDEK
Aircraft A339/H-SADE1E2E3GHIJ1J3J5M1P2RWXY/LB1

Departure

Time N/A
Airport Guiyang Longdongbao International Airport (ZUGY)

Arrival

Time 2026-04-14 11:10
Airport Tianjin Binhai International Airport (ZBTJ)
Time Latitude Longitude Altitude Speed Heading
2026-04-14 09:29 29.43093 109.63294 39096 ft 489 kts 348°
2026-04-14 09:29 29.49911 109.63025 39098 ft 490 kts 348°
2026-04-14 09:30 29.56721 109.62765 39098 ft 488 kts 348°
2026-04-14 09:30 29.63543 109.62508 39105 ft 490 kts 348°
2026-04-14 09:31 29.70376 109.62251 39106 ft 488 kts 348°
2026-04-14 09:31 29.77213 109.61994 39116 ft 488 kts 348°
2026-04-14 09:32 29.84003 109.61737 39123 ft 488 kts 348°
2026-04-14 09:33 29.94221 109.61352 39129 ft 488 kts 348°
2026-04-14 09:33 30.01061 109.61095 39139 ft 489 kts 348°
2026-04-14 09:34 30.07858 109.60838 39139 ft 488 kts 348°
2026-04-14 09:34 30.14624 109.60580 39135 ft 488 kts 348°
2026-04-14 09:35 30.21454 109.60330 39130 ft 488 kts 348°
2026-04-14 09:35 30.28246 109.60195 39128 ft 491 kts 350°
2026-04-14 09:36 30.35159 109.60561 39124 ft 496 kts 354°
2026-04-14 09:36 30.42063 109.61126 39125 ft 497 kts 354°
2026-04-14 09:37 30.48934 109.61764 39131 ft 498 kts 354°
2026-04-14 09:37 30.55827 109.62404 39124 ft 497 kts 354°
2026-04-14 09:38 30.62748 109.63039 39129 ft 497 kts 354°
2026-04-14 09:38 30.69647 109.63674 39130 ft 496 kts 354°
2026-04-14 09:39 30.76559 109.64307 39136 ft 496 kts 354°
2026-04-14 09:39 30.83431 109.64935 39128 ft 497 kts 354°
2026-04-14 09:40 30.90377 109.65567 39122 ft 496 kts 354°
2026-04-14 09:40 30.97262 109.66193 39125 ft 496 kts 354°
2026-04-14 09:41 31.04155 109.66822 39136 ft 495 kts 354°
2026-04-14 09:41 31.11047 109.67451 39122 ft 497 kts 354°
2026-04-14 09:42 31.17914 109.68082 39135 ft 496 kts 354°
2026-04-14 09:42 31.24796 109.68716 39141 ft 494 kts 354°
2026-04-14 09:43 31.31668 109.69347 39145 ft 494 kts 354°
2026-04-14 09:43 31.38552 109.69981 39154 ft 494 kts 354°
2026-04-14 09:44 31.45442 109.70615 39149 ft 494 kts 354°
2026-04-14 09:44 31.52275 109.71252 39173 ft 493 kts 354°
2026-04-14 09:45 31.59134 109.71886 39183 ft 494 kts 354°
2026-04-14 09:45 31.66014 109.72522 39184 ft 494 kts 354°
2026-04-14 09:46 31.72875 109.73161 39175 ft 494 kts 354°
2026-04-14 09:46 31.79714 109.73797 39199 ft 493 kts 354°
2026-04-14 09:47 31.86574 109.74437 39178 ft 493 kts 354°
2026-04-14 09:47 31.93446 109.75078 39187 ft 493 kts 354°
2026-04-14 09:48 32.00285 109.75718 39146 ft 492 kts 354°
2026-04-14 09:48 32.07126 109.76361 39157 ft 493 kts 355°
2026-04-14 09:49 32.13947 109.77148 39166 ft 499 kts
2026-04-14 09:49 32.20752 109.79503 39144 ft 515 kts 15°
2026-04-14 09:50 32.27044 109.83808 39136 ft 531 kts 31°
2026-04-14 09:50 32.32560 109.89696 39141 ft 538 kts 39°
2026-04-14 09:51 32.37909 109.95952 39125 ft 538 kts 39°
2026-04-14 09:51 32.43245 110.02149 39118 ft 537 kts 39°
2026-04-14 09:52 32.48605 110.08316 39120 ft 537 kts 38°
2026-04-14 09:52 32.53962 110.14479 39108 ft 536 kts 39°
2026-04-14 09:53 32.59312 110.20634 39102 ft 537 kts 38°
2026-04-14 09:53 32.64673 110.26817 39109 ft 535 kts 39°
2026-04-14 09:54 32.70015 110.32986 39100 ft 534 kts 38°
2026-04-14 09:54 32.75323 110.39126 39107 ft 533 kts 39°
2026-04-14 09:55 32.80631 110.45273 39112 ft 532 kts 39°
2026-04-14 09:55 32.85916 110.51413 39089 ft 532 kts 39°
2026-04-14 09:56 32.91193 110.57554 39104 ft 530 kts 38°
2026-04-14 09:56 32.96475 110.63702 39084 ft 530 kts 38°
2026-04-14 09:57 33.01749 110.69860 39094 ft 529 kts 39°
2026-04-14 09:57 33.07011 110.76008 39084 ft 530 kts 39°
2026-04-14 09:58 33.12270 110.82166 39103 ft 530 kts 39°
2026-04-14 09:58 33.17521 110.88329 39085 ft 529 kts 39°
2026-04-14 09:59 33.22774 110.94505 39082 ft 529 kts 39°
2026-04-14 09:59 33.28033 111.00695 39068 ft 530 kts 39°
2026-04-14 10:00 33.33276 111.06882 39071 ft 528 kts 39°
2026-04-14 10:00 33.38492 111.13049 39071 ft 527 kts 39°
2026-04-14 10:01 33.43710 111.19218 39076 ft 528 kts 39°
2026-04-14 10:01 33.48911 111.25391 39089 ft 527 kts 39°
2026-04-14 10:02 33.54135 111.31596 39100 ft 527 kts 39°
2026-04-14 10:02 33.59326 111.37772 39105 ft 529 kts 39°
2026-04-14 10:03 33.64531 111.43983 39109 ft 527 kts 39°
2026-04-14 10:03 33.69745 111.50207 39112 ft 528 kts 39°
2026-04-14 10:04 33.74943 111.56432 39122 ft 527 kts 39°
2026-04-14 10:04 33.80114 111.62633 39114 ft 526 kts 39°
2026-04-14 10:05 33.85301 111.68860 39118 ft 527 kts 40°
2026-04-14 10:05 33.90455 111.75060 39098 ft 525 kts 40°
2026-04-14 10:06 33.95650 111.81324 39089 ft 525 kts 40°
2026-04-14 10:06 34.00785 111.87522 39083 ft 526 kts 40°
2026-04-14 10:07 34.05959 111.93786 39088 ft 525 kts 40°
2026-04-14 10:07 34.11135 112.00058 39082 ft 524 kts 40°
2026-04-14 10:08 34.16272 112.06297 39085 ft 524 kts 40°
2026-04-14 10:08 34.21401 112.12537 39070 ft 525 kts 40°
2026-04-14 10:09 34.26568 112.18832 39073 ft 525 kts 40°
2026-04-14 10:09 34.31682 112.25075 39062 ft 525 kts 40°
2026-04-14 10:10 34.36839 112.31386 39057 ft 525 kts 40°
2026-04-14 10:10 34.41936 112.37630 39044 ft 524 kts 40°
2026-04-14 10:11 34.47079 112.43948 39042 ft 525 kts 40°
2026-04-14 10:11 34.52195 112.50236 39025 ft 525 kts 41°
2026-04-14 10:12 34.57310 112.56544 39038 ft 524 kts 41°
2026-04-14 10:12 34.62432 112.62865 39053 ft 525 kts 41°
2026-04-14 10:13 34.67566 112.69217 39044 ft 525 kts 41°
2026-04-14 10:13 34.72669 112.75542 39043 ft 525 kts 41°
2026-04-14 10:14 34.77764 112.81869 39044 ft 524 kts 41°
2026-04-14 10:14 34.82885 112.88236 39038 ft 525 kts 42°
2026-04-14 10:15 34.87989 112.94599 39049 ft 525 kts 41°
2026-04-14 10:15 34.93064 113.00937 39028 ft 525 kts 41°
2026-04-14 10:16 34.98179 113.07336 39047 ft 525 kts 42°
2026-04-14 10:16 35.03224 113.13665 39018 ft 524 kts 41°
2026-04-14 10:17 35.08308 113.20045 39026 ft 524 kts 41°
2026-04-14 10:17 35.13388 113.26439 39026 ft 524 kts 41°
2026-04-14 10:18 35.21001 113.36042 39019 ft 525 kts 41°
2026-04-14 10:18 35.26074 113.42455 39012 ft 524 kts 41°
2026-04-14 10:19 35.31139 113.48868 39037 ft 525 kts 41°
2026-04-14 10:19 35.36201 113.55293 39043 ft 525 kts 41°
2026-04-14 10:20 35.41270 113.61741 39044 ft 525 kts 41°
2026-04-14 10:20 35.46323 113.68176 39048 ft 525 kts 42°
2026-04-14 10:21 35.51416 113.74681 39025 ft 526 kts 42°
2026-04-14 10:21 35.56473 113.81145 39033 ft 526 kts 41°
2026-04-14 10:22 35.61519 113.87611 39012 ft 527 kts 42°
2026-04-14 10:22 35.66595 113.94130 39044 ft 526 kts 42°
2026-04-14 10:23 35.71680 114.00668 39044 ft 528 kts 41°
2026-04-14 10:23 35.76716 114.07166 39040 ft 527 kts 42°
2026-04-14 10:24 35.79271 114.10460 38835 ft 529 kts 41°
2026-04-14 10:24 35.81794 114.13724 38572 ft 527 kts 42°
2026-04-14 10:24 35.84330 114.17001 38291 ft 529 kts 42°
2026-04-14 10:24 35.86862 114.20279 38012 ft 529 kts 41°
2026-04-14 10:25 35.89413 114.23581 37703 ft 530 kts 42°
2026-04-14 10:25 35.91943 114.26862 37385 ft 530 kts 41°
2026-04-14 10:25 35.94486 114.30170 37086 ft 531 kts 43°
2026-04-14 10:25 35.97044 114.33496 36787 ft 532 kts 42°
2026-04-14 10:26 35.99565 114.36773 36498 ft 532 kts 42°
2026-04-14 10:26 36.02114 114.40093 36205 ft 533 kts 42°
2026-04-14 10:26 36.04659 114.43413 35926 ft 534 kts 43°
2026-04-14 10:26 36.07218 114.46755 35687 ft 535 kts 43°
2026-04-14 10:27 36.09775 114.50096 35450 ft 536 kts 43°
2026-04-14 10:27 36.12341 114.53451 35209 ft 536 kts 43°
2026-04-14 10:27 36.14934 114.56849 35026 ft 537 kts 43°
2026-04-14 10:27 36.17479 114.60191 34994 ft 538 kts 43°
2026-04-14 10:28 36.22648 114.66925 34994 ft 536 kts 40°
2026-04-14 10:28 36.28687 114.72197 34998 ft 521 kts 20°
2026-04-14 10:29 36.35418 114.75262 35002 ft 512 kts
2026-04-14 10:29 36.42188 114.77940 35000 ft 515 kts 13°
2026-04-14 10:30 36.48833 114.81444 35004 ft 520 kts 18°
2026-04-14 10:30 36.55373 114.85264 34998 ft 522 kts 19°
2026-04-14 10:31 36.61953 114.89123 35000 ft 521 kts 18°
2026-04-14 10:31 36.68516 114.92959 34994 ft 520 kts 18°
2026-04-14 10:32 36.75057 114.96775 34994 ft 519 kts 18°
2026-04-14 10:32 36.81641 115.00621 34992 ft 520 kts 18°
2026-04-14 10:33 36.88145 115.04427 34990 ft 520 kts 18°
2026-04-14 10:33 36.94692 115.08270 34986 ft 520 kts 18°
2026-04-14 10:34 37.04519 115.14048 34983 ft 520 kts 18°
2026-04-14 10:35 37.11084 115.17919 34982 ft 518 kts 17°
2026-04-14 10:35 37.17604 115.21770 34978 ft 519 kts 17°
2026-04-14 10:36 37.24148 115.25639 34980 ft 519 kts 17°
2026-04-14 10:36 37.30700 115.29527 34970 ft 517 kts 17°
2026-04-14 10:37 37.37207 115.33388 34975 ft 519 kts 17°
2026-04-14 10:37 37.43716 115.37266 34969 ft 518 kts 17°
2026-04-14 10:38 37.50229 115.41146 34968 ft 519 kts 17°
2026-04-14 10:38 37.53504 115.43103 34855 ft 517 kts 17°
2026-04-14 10:38 37.56722 115.45033 34612 ft 509 kts 16°
2026-04-14 10:38 37.59946 115.46965 34382 ft 507 kts 16°
2026-04-14 10:39 37.63109 115.48858 34144 ft 507 kts 16°
2026-04-14 10:39 37.66342 115.50793 33848 ft 509 kts 16°
2026-04-14 10:39 37.69513 115.52694 33334 ft 510 kts 16°
2026-04-14 10:39 37.72754 115.54641 32803 ft 509 kts 16°
2026-04-14 10:40 37.75917 115.56521 32291 ft 505 kts 13°
2026-04-14 10:40 37.79227 115.57937 31569 ft 493 kts
2026-04-14 10:40 37.82582 115.58600 30768 ft 480 kts 352°
2026-04-14 10:40 37.85840 115.58587 30095 ft 469 kts 346°
2026-04-14 10:41 37.89125 115.58326 29461 ft 467 kts 345°
2026-04-14 10:41 37.92320 115.58037 28861 ft 466 kts 345°
2026-04-14 10:41 37.95566 115.57752 28239 ft 465 kts 346°
2026-04-14 10:41 37.98814 115.57485 27627 ft 464 kts 347°
2026-04-14 10:42 38.02013 115.57241 27140 ft 461 kts 347°
2026-04-14 10:42 38.05197 115.57006 26648 ft 457 kts 348°
2026-04-14 10:42 38.08357 115.56774 26158 ft 453 kts 349°
2026-04-14 10:42 38.11531 115.56622 25676 ft 451 kts 350°
2026-04-14 10:43 38.14660 115.56444 25182 ft 446 kts 349°
2026-04-14 10:43 38.17743 115.56233 24680 ft 442 kts 349°
2026-04-14 10:43 38.20783 115.56014 24175 ft 439 kts 349°
2026-04-14 10:43 38.23856 115.55809 23652 ft 437 kts 352°
2026-04-14 10:44 38.26893 115.56155 23126 ft 444 kts
2026-04-14 10:44 38.29868 115.57359 22604 ft 450 kts 18°
2026-04-14 10:44 38.32692 115.59084 22095 ft 449 kts 21°
2026-04-14 10:44 38.35461 115.60874 21572 ft 446 kts 21°
2026-04-14 10:45 38.38224 115.62663 21051 ft 443 kts 21°
2026-04-14 10:45 38.40990 115.64436 20615 ft 437 kts 21°
2026-04-14 10:45 38.43665 115.66136 20253 ft 430 kts 21°
2026-04-14 10:45 38.46323 115.67815 19889 ft 423 kts 21°
2026-04-14 10:46 38.48849 115.69767 19509 ft 425 kts 35°
2026-04-14 10:46 38.50853 115.72527 19149 ft 427 kts 52°
2026-04-14 10:46 38.52310 115.75833 18799 ft 424 kts 60°
2026-04-14 10:46 38.53615 115.79179 18440 ft 419 kts 60°
2026-04-14 10:47 38.54898 115.82487 18081 ft 413 kts 60°
2026-04-14 10:47 38.56167 115.85728 17690 ft 410 kts 60°
2026-04-14 10:47 38.57451 115.88963 17239 ft 408 kts 60°
2026-04-14 10:47 38.58743 115.92198 16786 ft 406 kts 59°
2026-04-14 10:48 38.60027 115.95403 16332 ft 403 kts 59°
2026-04-14 10:48 38.61302 115.98580 15880 ft 401 kts 59°
2026-04-14 10:48 38.62572 116.01749 15428 ft 399 kts 59°
2026-04-14 10:48 38.63828 116.04886 14984 ft 397 kts 59°
2026-04-14 10:49 38.64955 116.08134 14516 ft 399 kts 70°
2026-04-14 10:49 38.65477 116.11603 14087 ft 400 kts 84°
2026-04-14 10:49 38.65473 116.15162 13665 ft 399 kts 90°
2026-04-14 10:49 38.65350 116.18690 13235 ft 396 kts 91°
2026-04-14 10:50 38.65218 116.22144 12981 ft 389 kts 91°
2026-04-14 10:50 38.65104 116.25569 12733 ft 382 kts 90°
2026-04-14 10:50 38.65008 116.28939 12481 ft 375 kts 90°
2026-04-14 10:50 38.64920 116.32265 12226 ft 368 kts 90°
2026-04-14 10:51 38.64859 116.35523 11979 ft 362 kts 86°
2026-04-14 10:51 38.65084 116.38665 11731 ft 354 kts 77°
2026-04-14 10:51 38.65642 116.41701 11671 ft 341 kts 71°
2026-04-14 10:51 38.66309 116.44532 11664 ft 328 kts 69°
2026-04-14 10:52 38.66975 116.47260 11666 ft 316 kts 69°
2026-04-14 10:52 38.67622 116.49923 11665 ft 305 kts 69°
2026-04-14 10:52 38.68233 116.52471 11662 ft 293 kts 69°
2026-04-14 10:52 38.68809 116.54909 11655 ft 283 kts 69°
2026-04-14 10:53 38.69380 116.57333 11489 ft 278 kts 69°
2026-04-14 10:53 38.69934 116.59682 11264 ft 278 kts 69°
2026-04-14 10:53 38.70497 116.62071 10958 ft 281 kts 69°
2026-04-14 10:53 38.71056 116.64463 10644 ft 284 kts 70°
2026-04-14 10:54 38.71621 116.66898 10317 ft 286 kts 70°
2026-04-14 10:54 38.72191 116.69368 9996 ft 288 kts 70°
2026-04-14 10:54 38.72760 116.71838 9673 ft 290 kts 70°
2026-04-14 10:54 38.73329 116.74304 9353 ft 292 kts 71°
2026-04-14 10:55 38.73907 116.76816 9038 ft 294 kts 71°
2026-04-14 10:55 38.74491 116.79353 8717 ft 295 kts 71°
2026-04-14 10:55 38.75071 116.81873 8416 ft 297 kts 72°
2026-04-14 10:55 38.75653 116.84418 8152 ft 295 kts 72°
2026-04-14 10:56 38.76226 116.86925 7951 ft 292 kts 72°
2026-04-14 10:56 38.76795 116.89420 7756 ft 288 kts 72°
2026-04-14 10:56 38.77355 116.91873 7573 ft 285 kts 73°
2026-04-14 10:56 38.77905 116.94286 7385 ft 282 kts 73°
2026-04-14 10:57 38.78455 116.96697 7201 ft 280 kts 73°
2026-04-14 10:57 38.79002 116.99101 6998 ft 277 kts 75°
2026-04-14 10:57 38.79241 117.01508 6787 ft 273 kts 96°
2026-04-14 10:57 38.78792 117.03862 6577 ft 267 kts 113°
2026-04-14 10:58 38.78082 117.06028 6389 ft 265 kts 116°
2026-04-14 10:58 38.77336 117.08196 6196 ft 263 kts 116°
2026-04-14 10:58 38.76614 117.10326 5998 ft 261 kts 116°
2026-04-14 10:58 38.75902 117.12466 5799 ft 259 kts 115°
2026-04-14 10:59 38.75201 117.14609 5635 ft 257 kts 115°
2026-04-14 10:59 38.74523 117.16698 5443 ft 256 kts 115°
2026-04-14 10:59 38.73837 117.18810 5245 ft 254 kts 114°
2026-04-14 10:59 38.73224 117.20915 5047 ft 254 kts 105°
2026-04-14 11:00 38.73021 117.23154 4870 ft 254 kts 89°
2026-04-14 11:00 38.73172 117.25384 4812 ft 247 kts 84°
2026-04-14 11:00 38.73390 117.27583 4597 ft 248 kts 83°
2026-04-14 11:00 38.73610 117.29776 4364 ft 249 kts 84°
2026-04-14 11:01 38.73822 117.31993 4127 ft 250 kts 84°
2026-04-14 11:01 38.74025 117.34208 3882 ft 252 kts 84°
2026-04-14 11:01 38.74223 117.36434 3641 ft 253 kts 84°
2026-04-14 11:01 38.74421 117.38682 3386 ft 254 kts 84°
2026-04-14 11:02 38.74618 117.40929 3131 ft 255 kts 84°
2026-04-14 11:02 38.74951 117.43137 2939 ft 253 kts 65°
2026-04-14 11:02 38.76019 117.44875 2917 ft 243 kts 34°
2026-04-14 11:02 38.77535 117.45712 2816 ft 235 kts
2026-04-14 11:03 38.79149 117.45927 2736 ft 230 kts
2026-04-14 11:03 38.80744 117.46079 2589 ft 231 kts
2026-04-14 11:03 38.82363 117.46238 2375 ft 231 kts
2026-04-14 11:03 38.83949 117.46405 2345 ft 224 kts
2026-04-14 11:04 38.85476 117.46584 2300 ft 217 kts
2026-04-14 11:04 38.86962 117.46765 2226 ft 211 kts
2026-04-14 11:04 38.88417 117.46948 2140 ft 204 kts
2026-04-14 11:04 38.89798 117.47124 2066 ft 197 kts
2026-04-14 11:05 38.91141 117.47292 1989 ft 190 kts
2026-04-14 11:05 38.92433 117.47453 1956 ft 183 kts
2026-04-14 11:05 38.93719 117.47612 1957 ft 184 kts
2026-04-14 11:05 38.94974 117.47557 1951 ft 175 kts 349°
2026-04-14 11:06 38.96126 117.47156 1948 ft 169 kts 340°
2026-04-14 11:06 38.97233 117.46591 1957 ft 172 kts 337°
2026-04-14 11:06 38.98331 117.45962 1958 ft 170 kts 335°
2026-04-14 11:06 38.99386 117.45323 1941 ft 160 kts 335°
2026-04-14 11:07 39.00372 117.44717 1931 ft 154 kts 335°
2026-04-14 11:07 39.01328 117.44127 1935 ft 149 kts 335°
2026-04-14 11:07 39.02264 117.43550 1936 ft 147 kts 335°
2026-04-14 11:07 39.03198 117.42976 1812 ft 147 kts 335°
2026-04-14 11:08 39.04119 117.42410 1618 ft 145 kts 334°
2026-04-14 11:08 39.05020 117.41856 1427 ft 144 kts 335°
2026-04-14 11:08 39.05931 117.41297 1239 ft 146 kts 336°
2026-04-14 11:08 39.06873 117.40719 1046 ft 149 kts 336°
2026-04-14 11:09 39.07797 117.40152 852 ft 148 kts 336°
2026-04-14 11:09 39.08739 117.39574 655 ft 148 kts 336°
2026-04-14 11:09 39.09674 117.39000 458 ft 149 kts 336°
2026-04-14 11:10 39.11551 117.37848 75 ft 149 kts 336°
2026-04-14 11:10 39.12445 117.37302 30 ft 116 kts 334°
2026-04-14 11:10 39.12915 117.37013 30 ft 42 kts 334°